Location: Banios
(43.0451°N, 0.2335°E)
Time: 12:01:59
(UTC+00:00)

Envisat - Pass Details

Date: 16 December 2021
Orbit: 764 x 766 km, 98.2° (Epoch: 20 January)

Event Time Altitude Azimuth Distance (km) Brightness Sun altitude
Rises 04:45:34 0° 16° (NNE) 3,241 6.4 -28.0°
Reaches altitude 10° 04:47:55 10° 19° (NNE) 2,310 5.6 -27.6°
Maximum altitude 04:52:58 63° 101° (E) 851 3.3 -26.7°
Drops below altitude 10° 04:57:59 10° 183° (S) 2,293 5.5 -25.8°
Sets 05:00:18 0° 186° (S) 3,214 6.3 -25.3°
